Overview Statistics Trail Chart Weather Telemetry Raw packets
 

This is the latest recevied weather packets stored in our database for station/object KE5OYL. If no packets are shown the sender has not sent any weather packets the latest 10 day(s).

<< 1 2 3 4 5 6 >>
Time Temp. Humidity Pressure Rain* Wind** Luminosity Snow
1788618995 30.56° C 66% 1015.4 hPa 0 mm - 322 W/m² -
1788618669 30.56° C 67% 1015.3 hPa 0 mm - 307 W/m² -
1788618368 29.44° C 69% 1015.2 hPa 0 mm - 289 W/m² -
1788618062 29.44° C 70% 1015.4 hPa 0 mm - 274 W/m² -
1788617762 29.44° C 70% 1015.5 hPa 0 mm - 258 W/m² -
1788617458 28.89° C 70% 1015.2 hPa 0 mm - 237 W/m² -
1788617153 28.89° C 70% 1015.2 hPa 0 mm - 222 W/m² -
1788616852 28.89° C 71% 1015 hPa 0 mm - 207 W/m² -
1788616548 28.89° C 70% 1015.1 hPa 0 mm - 191 W/m² -
1788616248 28.89° C 71% 1015.4 hPa 0 mm - 175 W/m² -
1788615943 28.89° C 70% 1015.3 hPa 0 mm - 163 W/m² -
1788615668 28.89° C 70% 1015.1 hPa 0 mm - 147 W/m² -
1788615337 28.89° C 71% 1015.2 hPa 0 mm - 128 W/m² -
1788615031 28.89° C 70% 1015.1 hPa 0 mm - 109 W/m² -
1788614731 28.33° C 71% 1015.1 hPa 0 mm - 109 W/m² -
1788614426 28.89° C 71% 1015.1 hPa 0 mm - 97 W/m² -
1788614121 28.33° C 72% 1014.9 hPa 0 mm - 89 W/m² -
1788613817 28.89° C 71% 1015.1 hPa 0 mm - 53 W/m² -
1788613516 28.33° C 72% 1014.8 hPa 0 mm - 59 W/m² -
1788613211 27.22° C 74% 1014.6 hPa 0 mm - 62 W/m² -
1788612905 27.22° C 74% 1014.7 hPa 0 mm - 66 W/m² -
1788612600 27.22° C 74% 1014.7 hPa 0 mm - 55 W/m² -
1788612297 27.22° C 75% 1014.6 hPa 0 mm - 30 W/m² -
1788611992 27.22° C 75% 1014.7 hPa 0 mm - 30 W/m² -
1788611689 27.22° C 75% 1014.7 hPa 0 mm - 26 W/m² -

* Rain latest hour (hover to see other rain measurements)
** Current wind speed in m/s (hover to see current wind gust speed)